[[[{"header":{"parameterUnit":"kt","parameterCategory":2,"dx":1,"dy":1,"la1":30.253999710083008,"la2":30.299108505249023,"lo1":-89.0895004272461,"lo2":-89.04439544677734,"nx":28,"ny":28,"refTime":"2022-09-23T21:00:00:Z","depth":0,"parameterNumber":1,"parameterNumberName":"U-component_of_WINDS"},"data":[-4.1512,-4.1656,-4.1664,-4.1832,-4.1868,-4.1984,-4.2029,-4.2088,-4.2137,-4.2278,-4.2362,-4.2386,-4.2439,-4.2542,-4.2634,-4.2643,-4.2681,-4.2726,-4.2729,-4.2518,-4.249,-4.2463,-4.2428,-4.2735,-4.2735,-4.2945,-4.2947,-4.2949,-4.1358,-4.1395,-4.1486,-4.1579,-4.1658,-4.1619,-4.1691,-4.176,-4.1866,-4.1928,-4.201,-4.2136,-4.2237,-4.2276,-4.2375,-4.2444,-4.2432,-4.2471,-4.2465,-4.2474,-4.225,-4.2213,-4.2479,-4.2479,-4.2479,-4.2479,-4.2478,-4.2478,-4.1079,-4.1165,-4.1226,-4.1325,-4.1374,-4.1437,-4.1521,-4.1547,-4.1638,-4.174,-4.1733,-4.1854,-4.1918,-4.2042,-4.2086,-4.2181,-4.214,-4.2185,-4.2196,-4.2207,-4.2219,-4.1913,-4.2199,-4.2198,-4.2197,-4.2197,-4.2196,0,-4.0877,-4.0878,-4.0965,-4.1056,-4.1128,-4.1199,-4.1266,-4.1318,-4.1323,-4.1397,-4.1506,-4.1571,-4.1699,-4.1803,-4.1898,-4.1934,-4.1902,-4.19,-4.1931,-4.1936,-4.1928,-4.1933,-4.1566,-4.1892,-4.1889,-4.1887,-4.1886,-4.1885,-4.0596,-4.0696,-4.0762,-4.0823,-4.086,-4.0959,-4.1019,-4.1015,-4.108,-4.1162,-4.1239,-4.1343,-4.1426,-4.1601,-4.1632,-4.1728,-4.1714,-4.1837,-4.1728,-4.1728,-4.1715,-4.1709,-4.1719,-4.1858,-4.1861,-4.1864,-4.1866,0,-4.0437,-4.0448,-4.0604,-4.0661,-4.0678,-4.0783,-4.0831,-4.0918,-4.0934,-4.1055,-4.1084,-4.1109,-4.1217,-4.1228,-4.1354,-4.1356,-4.1532,-4.1515,-4.1509,-4.1506,-4.1618,-4.1607,-4.1977,-4.2025,-4.1708,-4.1711,-4.1714,0,-4.0201,-4.0332,-4.034,-4.0431,-4.0576,-4.0567,-4.0712,-4.074,-4.0793,-4.0889,-4.0853,-4.0944,-4.0943,-4.1036,-4.104,-4.1185,-4.1209,-4.1219,-4.1219,-4.1222,-4.1221,-4.1257,-4.1242,-4.1214,-4.1212,-4.121,-4.1209,0,-3.995,-4.0108,-4.0254,-4.0292,-4.0365,-4.0435,-4.0469,-4.0528,-4.0587,-4.0666,-4.0705,-4.0799,-4.085,-4.0924,-4.0927,-4.0853,-4.1105,-4.1004,-4.1116,-4.1116,-4.1171,-4.1167,-4.1493,-4.1206,-4.1206,-4.1205,-4.1204,0,-3.976,-3.9838,-4.0049,-4.0108,-4.015,-4.0247,-4.0337,-4.0422,-4.0488,-4.0495,-4.0558,-4.0534,-4.0662,-4.056,-4.0737,-4.0638,-4.0692,-4.0713,-4.0721,-4.0733,-4.0619,-4.08,-4.111,-4.1142,-4.0745,-4.0741,-4.0738,0,-3.947,-3.9685,-3.9678,-3.9879,-3.9979,-3.993,-4.0038,-4.0096,-4.0115,-4.0204,-4.0225,-4.0328,-4.0254,-4.0287,-4.0373,-4.04,-4.0527,-4.0383,-4.0513,-4.0518,-4.0496,-4.0781,-4.0824,-4.1041,-4.0689,-4.0694,-4.0697,0,-3.9246,-3.9331,-3.9368,-3.941,-3.9483,-3.9568,-3.9692,-3.979,-3.9849,-3.9919,-4.0023,-4.0167,-4.0117,-4.0173,-4.0163,-4.0253,-4.0441,-4.0187,-4.0189,-4.0232,-4.0665,-4.0705,-4.0741,-4.0415,-4.0421,-4.0426,-4.0659,0,-3.8956,-3.9065,-3.9163,-3.9257,-3.9323,-3.9449,-3.9456,-3.9525,-3.9508,-3.9525,-3.9679,-3.9729,-3.9831,-3.9874,-3.986,-4.006,-4.0028,-3.9973,-3.9875,-4.0062,-4.0139,-4.017,-3.976,-3.9757,-3.9754,-3.9752,0,0,-3.8676,-3.883,-3.8817,-3.8936,-3.8991,-3.8937,-3.9071,-3.9119,-3.9216,-3.9256,-3.9201,-3.9411,-3.9455,-3.9641,-3.97,-3.9741,-3.9778,-3.9712,-3.9973,-3.9997,-4.002,-4.0102,-4.0135,-3.9748,-3.9747,-3.9746,-3.9746,0,-3.857,-3.8613,-3.8745,-3.8793,-3.8863,-3.8873,-3.8905,-3.8965,-3.8982,-3.9132,-3.9086,-3.9179,-3.9348,-3.94,-3.9449,-3.969,-3.9651,-3.972,-3.9847,-3.9948,-3.9976,-4.0001,-4.0087,-4.0118,-3.974,-3.974,-3.974,0,-3.835,-3.8394,-3.8457,-3.8578,-3.8624,-3.8729,-3.8626,-3.8741,-3.8819,-3.8755,-3.8905,-3.8935,-3.9005,-3.918,-3.9259,-3.9211,-3.9534,-3.9434,-3.9449,-3.9458,-3.9557,-3.959,-3.962,-3.9229,-3.9227,-3.9225,0,0,-3.8259,-3.8358,-3.8403,-3.8556,-3.8588,-3.8604,-3.866,-3.8649,-3.8712,-3.8737,-3.8774,-3.8838,-3.8935,-3.9,-3.9092,-3.9283,-3.9297,-3.937,-3.9394,-3.9414,-3.9434,-3.9537,-3.957,-3.9218,-3.9218,-3.9218,0,0,-3.8215,-3.8272,-3.8242,-3.842,-3.8481,-3.8536,-3.863,-3.8596,-3.8679,-3.8665,-3.8653,-3.8669,-3.8833,-3.8864,-3.8771,-3.9057,-3.8959,-3.8982,-3.903,-3.9061,-3.9085,-3.9074,-3.8673,0,0,0,0,0,-3.811,-3.8264,-3.8237,-3.8268,-3.842,-3.8551,-3.857,-3.8562,-3.8493,-3.8567,-3.8592,-3.8546,-3.8811,-3.8728,-3.876,-3.8864,-3.9129,-3.9145,-3.916,-3.9268,-3.93,-3.9326,0,0,0,0,0,0,-3.8122,-3.816,-3.8233,-3.8294,-3.8328,-3.8545,-3.8426,-3.8428,-3.8484,-3.8473,-3.8543,-3.8548,-3.8545,-3.8711,-3.874,-3.8839,-3.8664,-3.9135,-3.9149,-3.9161,-3.9279,-3.9305,-3.9327,0,0,0,0,0,-3.8131,-3.8162,-3.8408,-3.8292,-3.8322,-3.8348,-3.842,-3.842,-3.8464,-3.8503,-3.8507,-3.8453,-3.8548,-3.8572,-3.8728,-3.8826,-3.8644,-3.8655,-3.9144,-3.9155,-3.9164,-3.9291,0,0,0,0,0,0,-3.8138,-3.8164,-3.8414,-3.8423,-3.8232,-3.8335,-3.8351,-3.8414,-3.849,-3.8496,-3.8412,-3.8402,-3.8552,-3.857,-3.8588,-3.8822,-3.8628,-3.8639,-3.8645,-3.9152,-3.916,-3.9168,0,0,0,0,0,0,-3.8148,-3.8172,-3.8418,-3.8344,-3.8344,-3.8324,-3.8338,-3.847,-3.8492,-3.8395,-3.8389,-3.8407,-3.8525,-3.8569,-3.8583,-3.879,-3.8615,-3.8626,-3.8633,-3.8637,-3.9159,-3.9165,0,0,0,0,0,0,-3.8158,-3.8178,-3.8341,-3.8341,-3.8341,-3.844,-3.8441,-3.8598,-3.8426,-3.8392,-3.8411,-3.8404,-3.8526,-3.854,-3.858,-3.8781,-3.8788,-3.8615,-3.8623,-3.8628,-3.8631,0,0,0,0,0,0,0,-3.8166,-3.8028,-3.8361,-3.834,-3.8339,-3.8504,-3.8506,-3.8509,-3.8425,-3.8419,-3.8412,-3.8407,-3.8556,-3.8567,-3.8579,-3.8774,0,0,-3.8614,-3.862,0,0,0,0,0,0,0,0,-3.8019,-3.8026,-3.8362,-3.8363,-3.8365,-3.8504,-3.8506,-3.8508,-3.8424,-3.8419,-3.8414,-3.8409,-3.8559,-3.8568,-3.8577,0,0,0,0,0,0,0,0,0,0,0,0,0,0,0,-3.8362,-3.8363,0,-3.8505,-3.8506,-3.8508,-3.8423,-3.8419,-3.8415,-3.8411,-3.8561,-3.8569,-3.8577,0,0,0,0,0,0,0,0,0,0,0,0,0,0,0,0,0,0,0,0,0,0,0,0,0,0,0,0,0,0,0,0,0,0,0,0,0,0,0,0,0,0,0,0,0,0,0,0,0,0,0,0,0,0,0,0,0,0,0,0,0,0,0,0,0,0,0,0,0]}],[{"header":{"parameterUnit":"kt","parameterCategory":2,"dx":1,"dy":1,"la1":30.253999710083008,"la2":30.299108505249023,"lo1":-89.0895004272461,"lo2":-89.04439544677734,"nx":28,"ny":28,"refTime":"2022-09-23T21:00:00:Z","depth":0,"parameterNumber":2,"parameterNumberName":"V-component_of_WINDS"},"data":[-3.3814,-3.3798,-3.379,-3.3767,-3.3757,-3.3739,-3.373,-3.3717,-3.3705,-3.3681,-3.3666,-3.3655,-3.3638,-3.3616,-3.3598,-3.3593,-3.3585,-3.3583,-3.3578,-3.3593,-3.3595,-3.3596,-3.36,-3.3582,-3.3582,-3.3562,-3.3562,-3.3562,-3.382,-3.381,-3.3797,-3.3779,-3.3767,-3.3763,-3.3748,-3.3737,-3.3721,-3.3706,-3.3691,-3.3669,-3.3651,-3.3634,-3.3614,-3.3604,-3.36,-3.3598,-3.3598,-3.3595,-3.3612,-3.3616,-3.3601,-3.3601,-3.3601,-3.3601,-3.3601,-3.3601,-3.383,-3.3821,-3.3807,-3.3792,-3.3782,-3.3769,-3.3759,-3.3748,-3.3734,-3.3715,-3.3708,-3.369,-3.3672,-3.3646,-3.3635,-3.3618,-3.3618,-3.3614,-3.3612,-3.3611,-3.361,-3.3635,-3.3615,-3.3615,-3.3615,-3.3615,-3.3615,0,-3.3835,-3.3829,-3.3818,-3.3803,-3.3792,-3.378,-3.3767,-3.376,-3.3747,-3.3736,-3.3719,-3.3708,-3.3684,-3.3666,-3.3647,-3.3636,-3.363,-3.363,-3.3626,-3.3628,-3.3631,-3.3627,-3.3652,-3.3631,-3.3631,-3.3631,-3.3631,-3.3631,-3.3842,-3.3834,-3.3817,-3.3809,-3.3801,-3.3789,-3.378,-3.3769,-3.376,-3.3742,-3.3734,-3.3717,-3.3702,-3.3675,-3.3662,-3.3644,-3.3641,-3.3633,-3.3638,-3.364,-3.3638,-3.3638,-3.3636,-3.3632,-3.3632,-3.3632,-3.3632,0,-3.3847,-3.3837,-3.3823,-3.3807,-3.3803,-3.3794,-3.3779,-3.377,-3.3761,-3.3746,-3.3742,-3.3728,-3.3711,-3.3699,-3.3678,-3.3672,-3.3651,-3.365,-3.3656,-3.3655,-3.3645,-3.3645,-3.362,-3.3614,-3.3635,-3.3635,-3.3634,0,-3.3849,-3.3839,-3.3825,-3.3818,-3.3805,-3.3796,-3.3783,-3.3774,-3.3762,-3.3751,-3.3744,-3.3733,-3.372,-3.3707,-3.3698,-3.368,-3.3677,-3.367,-3.3668,-3.367,-3.3671,-3.3664,-3.3664,-3.3666,-3.3666,-3.3666,-3.3666,0,-3.3857,-3.3839,-3.3826,-3.3821,-3.3804,-3.3797,-3.379,-3.3777,-3.3768,-3.3755,-3.3749,-3.3735,-3.3726,-3.3714,-3.3703,-3.3707,-3.3682,-3.3685,-3.3675,-3.3675,-3.367,-3.367,-3.3651,-3.3666,-3.3667,-3.3667,-3.3667,0,-3.3858,-3.3847,-3.3831,-3.3817,-3.3812,-3.3804,-3.379,-3.3781,-3.3767,-3.3762,-3.3752,-3.3747,-3.3732,-3.3735,-3.3714,-3.3722,-3.3713,-3.3706,-3.3705,-3.3703,-3.3706,-3.3695,-3.368,-3.3676,-3.37,-3.37,-3.37,0,-3.3867,-3.385,-3.3843,-3.3828,-3.3819,-3.3812,-3.3803,-3.3792,-3.3785,-3.3774,-3.3765,-3.3754,-3.3754,-3.3749,-3.374,-3.373,-3.372,-3.3731,-3.3712,-3.3711,-3.3714,-3.37,-3.37,-3.3684,-3.3704,-3.3703,-3.3703,0,-3.3874,-3.3857,-3.3855,-3.3848,-3.3835,-3.3828,-3.3817,-3.3804,-3.3797,-3.3788,-3.3777,-3.3762,-3.376,-3.3752,-3.3747,-3.3739,-3.3726,-3.3739,-3.3738,-3.3735,-3.3706,-3.3705,-3.3703,-3.3724,-3.3724,-3.3723,-3.3706,0,-3.3874,-3.3866,-3.3861,-3.3848,-3.3841,-3.3833,-3.3824,-3.3817,-3.3813,-3.3806,-3.3792,-3.3782,-3.3769,-3.3765,-3.3761,-3.3746,-3.3747,-3.3746,-3.3748,-3.374,-3.3734,-3.3732,-3.3758,-3.3758,-3.3758,-3.3758,0,0,-3.3885,-3.3873,-3.3868,-3.3859,-3.3853,-3.3848,-3.3839,-3.3833,-3.382,-3.3814,-3.3816,-3.3793,-3.3785,-3.3768,-3.3765,-3.3761,-3.3756,-3.3761,-3.3745,-3.3743,-3.3742,-3.3735,-3.3733,-3.3758,-3.3758,-3.3758,-3.3758,0,-3.3884,-3.3879,-3.3872,-3.3865,-3.3855,-3.3849,-3.3847,-3.3836,-3.3832,-3.382,-3.3815,-3.3805,-3.3789,-3.378,-3.3774,-3.3762,-3.3759,-3.3759,-3.3755,-3.3745,-3.3744,-3.3742,-3.3736,-3.3734,-3.3758,-3.3758,-3.3758,0,-3.3888,-3.3881,-3.3877,-3.3865,-3.3859,-3.385,-3.385,-3.3842,-3.3835,-3.3831,-3.3819,-3.3812,-3.3801,-3.3788,-3.3782,-3.3783,-3.3762,-3.3768,-3.3768,-3.3767,-3.3756,-3.3755,-3.3753,-3.3773,-3.3773,-3.3773,0,0,-3.3888,-3.3881,-3.3871,-3.3865,-3.3861,-3.3853,-3.3848,-3.3844,-3.3836,-3.3832,-3.3824,-3.3815,-3.3805,-3.3798,-3.3789,-3.3776,-3.3772,-3.377,-3.377,-3.3769,-3.3768,-3.3757,-3.3756,-3.3774,-3.3774,-3.3774,0,0,-3.3887,-3.3876,-3.3875,-3.3867,-3.3859,-3.3848,-3.3844,-3.3841,-3.3833,-3.3833,-3.3825,-3.3823,-3.3811,-3.3805,-3.381,-3.3789,-3.3791,-3.379,-3.3793,-3.3792,-3.3792,-3.3793,-3.3809,0,0,0,0,0,-3.3883,-3.3878,-3.3876,-3.3874,-3.386,-3.3849,-3.3847,-3.3842,-3.3843,-3.3839,-3.3832,-3.383,-3.3806,-3.381,-3.3807,-3.3801,-3.3778,-3.3777,-3.3776,-3.3778,-3.3777,-3.3776,0,0,0,0,0,0,-3.3882,-3.3879,-3.3876,-3.3866,-3.3863,-3.3849,-3.385,-3.3848,-3.3843,-3.3843,-3.3831,-3.383,-3.3824,-3.3811,-3.3809,-3.3803,-3.381,-3.3777,-3.3777,-3.3776,-3.3777,-3.3777,-3.3776,0,0,0,0,0,-3.3881,-3.3879,-3.3858,-3.3866,-3.3863,-3.3855,-3.385,-3.3849,-3.3844,-3.3834,-3.3832,-3.3841,-3.3824,-3.3821,-3.381,-3.3804,-3.3811,-3.381,-3.3777,-3.3777,-3.3776,-3.3777,0,0,0,0,0,0,-3.388,-3.3877,-3.3857,-3.3856,-3.3868,-3.3855,-3.3853,-3.3849,-3.3836,-3.3834,-3.3843,-3.3843,-3.3824,-3.3822,-3.382,-3.3805,-3.3813,-3.3812,-3.3811,-3.3777,-3.3776,-3.3776,0,0,0,0,0,0,-3.3878,-3.3876,-3.3856,-3.3859,-3.3859,-3.3856,-3.3854,-3.3844,-3.3836,-3.3846,-3.3846,-3.3844,-3.3827,-3.3822,-3.3821,-3.3805,-3.3814,-3.3813,-3.3812,-3.3812,-3.3776,-3.3776,0,0,0,0,0,0,-3.3877,-3.3875,-3.386,-3.3859,-3.3858,-3.3845,-3.3846,-3.3832,-3.384,-3.3847,-3.384,-3.384,-3.3827,-3.3825,-3.3821,-3.3806,-3.3805,-3.3814,-3.3813,-3.3813,-3.3812,0,0,0,0,0,0,0,-3.3876,-3.389,-3.3864,-3.3859,-3.3858,-3.3845,-3.3845,-3.3845,-3.384,-3.384,-3.384,-3.384,-3.3819,-3.3818,-3.3817,-3.3807,0,0,-3.3814,-3.3813,0,0,0,0,0,0,0,0,-3.389,-3.389,-3.3864,-3.3864,-3.3863,-3.3845,-3.3845,-3.3845,-3.384,-3.384,-3.384,-3.384,-3.3819,-3.3818,-3.3817,0,0,0,0,0,0,0,0,0,0,0,0,0,0,0,-3.3864,-3.3864,0,-3.3845,-3.3845,-3.3845,-3.384,-3.384,-3.384,-3.384,-3.3818,-3.3818,-3.3817,0,0,0,0,0,0,0,0,0,0,0,0,0,0,0,0,0,0,0,0,0,0,0,0,0,0,0,0,0,0,0,0,0,0,0,0,0,0,0,0,0,0,0,0,0,0,0,0,0,0,0,0,0,0,0,0,0,0,0,0,0,0,0,0,0,0,0,0,0]}]]]